When you browse on this site, cookies collect data to enhance your experience and personalize the content and advertising you see.
Visit our Privacy Policy to learn more. By continuing to use the site, you agree to this use of cookies and data.
  • en Suisse
  • Liste des pays
  • À 7 jours
  • Température de l'eau
  • Carte météo
  • Widgets météo
  • user-avatar
    Se connecter

    Météo par heure à Goslar

    Ce jour, 7 Juin, Dimanche

    Heure Température Précipitation Vent Pression Humidité
    00:00 +7°C° 0 mm 2 m/s 725 mmHg 85%
    01:00 +7°C° 0 mm 2 m/s 725 mmHg 85%
    02:00 +7°C° 0 mm 2 m/s 725 mmHg 85%
    03:00 +7°C° 0 mm 2 m/s 725 mmHg 85%
    04:00 +7°C° 0 mm 2 m/s 725 mmHg 86%
    05:00 +9°C° 0 mm 2 m/s 726 mmHg 83%
    06:00 +10°C° 0 mm 3 m/s 726 mmHg 80%
    07:00 +11°C° 0 mm 3 m/s 726 mmHg 78%
    08:00 +12°C° 0 mm 3 m/s 726 mmHg 71%
    09:00 +14°C° 0 mm 4 m/s 727 mmHg 64%
    10:00 +15°C° 0 mm 5 m/s 727 mmHg 57%
    11:00 +15°C° 0.1 mm 4 m/s 727 mmHg 58%
    12:00 +17°C° 0.1 mm 4 m/s 727 mmHg 58%
    13:00 +17°C° 0.1 mm 4 m/s 728 mmHg 59%
    14:00 +17°C° 0.2 mm 4 m/s 728 mmHg 60%
    15:00 +17°C° 0.2 mm 4 m/s 728 mmHg 61%
    16:00 +17°C° 0.2 mm 4 m/s 728 mmHg 62%
    17:00 +16°C° 0.1 mm 3 m/s 728 mmHg 67%
    18:00 +15°C° 0.1 mm 2 m/s 729 mmHg 72%
    19:00 +15°C° 0.1 mm 2 m/s 729 mmHg 77%
    20:00 +13°C° 0 mm 1 m/s 729 mmHg 80%
    21:00 +11°C° 0 mm 1 m/s 730 mmHg 83%
    22:00 +10°C° 0 mm 1 m/s 730 mmHg 86%
    23:00 +9°C° 0 mm 1 m/s 730 mmHg 87%

    Demain, 8 Juin, Lundi

    Heure Température Précipitation Vent Pression Humidité
    00:00 +7°C° 0 mm 0 m/s 730 mmHg 88%
    01:00 +7°C° 0 mm 0 m/s 730 mmHg 88%
    02:00 +7°C° 0 mm 0 m/s 730 mmHg 89%
    03:00 +6°C° 0 mm 0 m/s 730 mmHg 90%
    04:00 +6°C° 0 mm 0 m/s 730 mmHg 90%
    05:00 +8°C° 0 mm 0 m/s 731 mmHg 86%
    06:00 +10°C° 0 mm 0 m/s 731 mmHg 82%
    07:00 +12°C° 0 mm 0 m/s 731 mmHg 77%
    08:00 +14°C° 0 mm 1 m/s 732 mmHg 72%
    09:00 +15°C° 0 mm 1 m/s 732 mmHg 67%
    10:00 +18°C° 0 mm 1 m/s 732 mmHg 62%
    11:00 +18°C° 0.1 mm 1 m/s 732 mmHg 61%
    12:00 +18°C° 0.1 mm 1 m/s 732 mmHg 61%
    13:00 +19°C° 0.1 mm 1 m/s 732 mmHg 61%
    14:00 +19°C° 0.3 mm 1 m/s 732 mmHg 62%
    15:00 +19°C° 0.3 mm 1 m/s 731 mmHg 63%
    16:00 +19°C° 0.3 mm 1 m/s 731 mmHg 63%
    17:00 +19°C° 0.5 mm 1 m/s 731 mmHg 70%
    18:00 +18°C° 0.5 mm 1 m/s 731 mmHg 77%
    19:00 +16°C° 0.5 mm 1 m/s 731 mmHg 84%
    20:00 +14°C° 0.1 mm 1 m/s 732 mmHg 85%
    21:00 +13°C° 0.1 mm 1 m/s 732 mmHg 86%
    22:00 +11°C° 0.1 mm 1 m/s 732 mmHg 88%
    23:00 +11°C° 0 mm 1 m/s 733 mmHg 88%

    Après-demain, 9 Juin, Mardi

    Heure Température Précipitation Vent Pression Humidité
    00:00 +10°C° 0 mm 1 m/s 733 mmHg 88%
    01:00 +9°C° 0 mm 0 m/s 733 mmHg 89%
    02:00 +9°C° 0 mm 0 m/s 733 mmHg 89%
    03:00 +8°C° 0 mm 0 m/s 733 mmHg 89%
    04:00 +8°C° 0 mm 0 m/s 733 mmHg 89%
    05:00 +10°C° 0 mm 0 m/s 733 mmHg 88%
    06:00 +12°C° 0 mm 1 m/s 733 mmHg 86%
    07:00 +14°C° 0 mm 1 m/s 734 mmHg 84%
    08:00 +15°C° 0 mm 1 m/s 734 mmHg 79%
    09:00 +16°C° 0 mm 1 m/s 734 mmHg 74%
    10:00 +18°C° 0 mm 2 m/s 735 mmHg 69%
    11:00 +18°C° 0.3 mm 2 m/s 734 mmHg 69%
    12:00 +18°C° 0.3 mm 2 m/s 734 mmHg 70%
    13:00 +19°C° 0.3 mm 2 m/s 734 mmHg 70%
    14:00 +19°C° 0.4 mm 2 m/s 734 mmHg 70%
    15:00 +19°C° 0.4 mm 2 m/s 734 mmHg 69%
    16:00 +19°C° 0.4 mm 3 m/s 734 mmHg 68%
    17:00 +19°C° 0.3 mm 2 m/s 734 mmHg 72%
    18:00 +18°C° 0.3 mm 2 m/s 734 mmHg 75%
    19:00 +17°C° 0.3 mm 2 m/s 734 mmHg 78%
    20:00 +16°C° 0 mm 1 m/s 734 mmHg 82%
    21:00 +14°C° 0 mm 1 m/s 735 mmHg 86%
    22:00 +12°C° 0 mm 1 m/s 735 mmHg 90%
    23:00 +12°C° 0 mm 1 m/s 735 mmHg 91%

    10 Juin, Mercredi

    Heure Température Précipitation Vent Pression Humidité
    00:00 +11°C° 0 mm 1 m/s 735 mmHg 92%
    01:00 +11°C° 0 mm 1 m/s 735 mmHg 93%
    02:00 +11°C° 0 mm 1 m/s 735 mmHg 92%
    03:00 +10°C° 0 mm 1 m/s 735 mmHg 92%
    04:00 +10°C° 0 mm 1 m/s 735 mmHg 92%
    05:00 +11°C° 0 mm 1 m/s 735 mmHg 90%
    06:00 +12°C° 0 mm 1 m/s 735 mmHg 87%
    07:00 +13°C° 0 mm 1 m/s 735 mmHg 85%
    08:00 +14°C° 0 mm 2 m/s 735 mmHg 79%
    09:00 +15°C° 0 mm 2 m/s 735 mmHg 73%
    10:00 +16°C° 0 mm 2 m/s 735 mmHg 67%
    11:00 +17°C° 0 mm 3 m/s 735 mmHg 64%
    12:00 +18°C° 0 mm 3 m/s 734 mmHg 61%
    13:00 +19°C° 0 mm 4 m/s 734 mmHg 57%
    14:00 +19°C° 0 mm 4 m/s 734 mmHg 58%
    15:00 +19°C° 0 mm 3 m/s 734 mmHg 60%
    16:00 +19°C° 0 mm 3 m/s 734 mmHg 61%
    17:00 +18°C° 0.2 mm 3 m/s 733 mmHg 69%
    18:00 +16°C° 0.2 mm 3 m/s 733 mmHg 77%
    19:00 +15°C° 0.2 mm 2 m/s 733 mmHg 85%
    20:00 +14°C° 0.3 mm 2 m/s 733 mmHg 88%
    21:00 +14°C° 0.3 mm 2 m/s 733 mmHg 90%
    22:00 +13°C° 0.3 mm 2 m/s 733 mmHg 93%
    23:00 +12°C° 0.1 mm 2 m/s 733 mmHg 93%

    11 Juin, Jeudi

    Heure Température Précipitation Vent Pression Humidité
    00:00 +12°C° 0.1 mm 2 m/s 733 mmHg 94%
    01:00 +10°C° 0.1 mm 3 m/s 733 mmHg 94%
    02:00 +10°C° 0.1 mm 2 m/s 733 mmHg 95%
    03:00 +10°C° 0.1 mm 2 m/s 732 mmHg 95%
    04:00 +9°C° 0.1 mm 2 m/s 732 mmHg 96%
    05:00 +9°C° 0.2 mm 2 m/s 732 mmHg 96%
    06:00 +9°C° 0.2 mm 2 m/s 732 mmHg 96%
    07:00 +10°C° 0.2 mm 2 m/s 732 mmHg 96%
    08:00 +10°C° 0.1 mm 2 m/s 732 mmHg 96%
    09:00 +10°C° 0.1 mm 3 m/s 732 mmHg 95%
    10:00 +10°C° 0.1 mm 3 m/s 732 mmHg 94%
    11:00 +10°C° 0 mm 3 m/s 732 mmHg 94%
    12:00 +11°C° 0 mm 3 m/s 732 mmHg 94%
    13:00 +11°C° 0 mm 3 m/s 732 mmHg 93%
    14:00 +11°C° 0.1 mm 3 m/s 732 mmHg 93%
    15:00 +11°C° 0.1 mm 3 m/s 731 mmHg 92%
    16:00 +13°C° 0.1 mm 2 m/s 731 mmHg 92%
    17:00 +13°C° 0 mm 2 m/s 731 mmHg 92%
    18:00 +13°C° 0 mm 2 m/s 731 mmHg 91%
    19:00 +13°C° 0 mm 2 m/s 731 mmHg 91%
    20:00 +12°C° 0 mm 1 m/s 731 mmHg 93%
    21:00 +12°C° 0 mm 1 m/s 731 mmHg 94%
    22:00 +12°C° 0 mm 1 m/s 731 mmHg 96%
    23:00 +12°C° 0 mm 1 m/s 730 mmHg 96%

    12 Juin, Vendredi

    Heure Température Précipitation Vent Pression Humidité
    00:00 +11°C° 0 mm 0 m/s 730 mmHg 96%
    01:00 +11°C° 0 mm 0 m/s 730 mmHg 96%
    02:00 +10°C° 0 mm 0 m/s 730 mmHg 97%
    03:00 +10°C° 0 mm 0 m/s 729 mmHg 97%
    04:00 +10°C° 0 mm 0 m/s 729 mmHg 97%
    05:00 +11°C° 0 mm 0 m/s 729 mmHg 95%
    06:00 +13°C° 0 mm 1 m/s 729 mmHg 94%
    07:00 +14°C° 0 mm 1 m/s 730 mmHg 92%
    08:00 +15°C° 0 mm 1 m/s 729 mmHg 88%
    09:00 +16°C° 0 mm 1 m/s 729 mmHg 83%
    10:00 +19°C° 0 mm 1 m/s 729 mmHg 79%
    11:00 +19°C° 0 mm 2 m/s 729 mmHg 77%
    12:00 +20°C° 0 mm 2 m/s 729 mmHg 74%
    13:00 +21°C° 0 mm 2 m/s 729 mmHg 71%
    14:00 +21°C° 0.1 mm 2 m/s 728 mmHg 72%
    15:00 +21°C° 0.1 mm 3 m/s 728 mmHg 73%
    16:00 +22°C° 0.1 mm 3 m/s 728 mmHg 73%
    17:00 +21°C° 0.1 mm 3 m/s 728 mmHg 77%
    18:00 +21°C° 0.1 mm 3 m/s 728 mmHg 80%
    19:00 +20°C° 0.1 mm 3 m/s 727 mmHg 83%
    20:00 +19°C° 0 mm 3 m/s 727 mmHg 86%
    21:00 +17°C° 0 mm 3 m/s 727 mmHg 90%
    22:00 +16°C° 0 mm 2 m/s 727 mmHg 93%
    23:00 +16°C° 0 mm 2 m/s 727 mmHg 94%
    Voir plus